West Palm Beach, FL

6:20 AM EDT on October 14, 2019 (GMT -0400)
Palm Beach International

Weather History for KPBI - May, 2019

Change the Weather History Date:

Tuesday, May 7, 2019

  Actual Average Record
Temperature  
Mean Temperature 78 °F 77 °F  
Max Temperature 85 °F 85 °F 95 °F (1967)
Min Temperature 71 °F 69 °F 54 °F (1945)
Degree Days  
Heating Degree Days 0 0  
Month to date heating degree days 0 0  
Since 1 July heating degree days 144 233  
Cooling Degree Days 13 12  
Month to date cooling degree days 96 80  
Year to date cooling degree days 1021 775  
Growing Degree Days 28 (Base 50)    
Moisture  
Dew Point 71 °F    
Average Humidity 81    
Maximum Humidity 93    
Minimum Humidity 69    
Precipitation  
Precipitation 0.78 in 0.09 in 1.73 in (1987)
Month to date precipitation 3.54 0.59  
Year to date precipitation 19.26 14.79  
Snow  
Snow 0.00 in - - ()
Month to date snowfall 0.0  
Since 1 July snowfall 0.0  
Snow Depth 0.00 in    
Sea Level Pressure  
Sea Level Pressure 30.03 in    
Wind  
Wind Speed 5 mph (ENE)    
Max Wind Speed 26 mph    
Max Gust Speed 31 mph    
Visibility 9 miles    
Events Rain , Thunderstorm    
T = Trace of Precipitation, MM = Missing Value Source: NWS Daily Summary

Daily Weather History Graph

Daily Weather History Graph

Search for Another Location

Airport or City:

Astronomy

May. 07, 2019 Rise Set
Actual Time 6:38 AM EDT 7:56 PM EDT
Civil Twilight 6:13 AM EDT 8:20 PM EDT
Nautical Twilight 5:44 AM EDT 8:50 PM EDT
Astronomical Twilight 5:13 AM EDT 9:20 PM EDT
Moon 8:48 AM EDT (5/7) 10:47 PM EDT (5/7)
Length of Visible Light 14h 07m
Length of Day
13h 17m
Waxing Crescent, 8% of the Moon is Illuminated
May 7
Waxing Crescent
May 11
First Quarter
May 18
Full
May 26
Last Quarter
Jun 3
New

Hourly Weather History & Observations

Time (EDT) Temp. Heat Index Dew Point Humidity Pressure Visibility Wind Dir Wind Speed Gust Speed Precip Events Conditions
12:53 AM 73.9 °F - 71.1 °F 91% 30.02 in 10.0 mi Calm Calm - N/A   Scattered Clouds
1:53 AM 72.0 °F - 70.0 °F 93% 30.02 in 10.0 mi WNW 4.6 mph - N/A   Scattered Clouds
2:53 AM 73.0 °F - 70.0 °F 90% 30.00 in 10.0 mi Calm Calm - N/A   Partly Cloudy
3:53 AM 72.0 °F - 70.0 °F 93% 29.98 in 10.0 mi Calm Calm - N/A   Partly Cloudy
4:53 AM 72.0 °F - 70.0 °F 93% 29.99 in 10.0 mi Calm Calm - N/A   Clear
5:53 AM 71.1 °F - 69.1 °F 93% 30.01 in 10.0 mi WNW 4.6 mph - N/A   Partly Cloudy
6:53 AM 73.0 °F - 70.0 °F 90% 30.02 in 10.0 mi Calm Calm - N/A   Scattered Clouds
7:53 AM 75.0 °F - 70.0 °F 84% 30.03 in 10.0 mi NE 3.5 mph - N/A   Mostly Cloudy
8:53 AM 77.0 °F - 70.0 °F 79% 30.05 in 10.0 mi ESE 4.6 mph - N/A   Mostly Cloudy
9:53 AM 80.1 °F 83.6 °F 71.1 °F 74% 30.07 in 10.0 mi Calm Calm - N/A   Mostly Cloudy
10:53 AM 82.0 °F 86.3 °F 71.1 °F 69% 30.07 in 10.0 mi Variable 4.6 mph - N/A   Mostly Cloudy
11:53 AM 82.9 °F 87.5 °F 71.1 °F 67% 30.07 in 10.0 mi ENE 9.2 mph - N/A   Mostly Cloudy
12:53 PM 82.9 °F 87.5 °F 71.1 °F 67% 30.06 in 10.0 mi East 6.9 mph - N/A   Scattered Clouds
1:53 PM 82.9 °F 87.5 °F 71.1 °F 67% 30.05 in 10.0 mi East 9.2 mph - N/A   Mostly Cloudy
2:53 PM 82.9 °F 87.5 °F 71.1 °F 67% 30.03 in 10.0 mi SE 6.9 mph - N/A   Mostly Cloudy
3:37 PM 82.0 °F 86.7 °F 72.0 °F 71% 30.02 in 10.0 mi East 9.2 mph - N/A Thunderstorm Thunderstorm
3:53 PM 81.0 °F 85.2 °F 72.0 °F 74% 30.03 in 10.0 mi ESE 5.8 mph - N/A Thunderstorm Thunderstorm
4:45 PM 72.0 °F - 68.0 °F 87% 30.03 in 1.5 mi WSW 4.6 mph - 0.19 in Rain , Thunderstorm Heavy Thunderstorms and Rain
4:53 PM 73.9 °F - 71.1 °F 91% 30.01 in 3.0 mi SSW 5.8 mph - 0.31 in Rain , Thunderstorm Thunderstorms and Rain
5:14 PM 73.9 °F - 71.1 °F 91% 30.02 in 10.0 mi WNW 3.5 mph - 0.02 in   Mostly Cloudy
5:53 PM 77.0 °F - 73.0 °F 88% 30.04 in 10.0 mi East 4.6 mph - 0.02 in   Mostly Cloudy
6:53 PM 77.0 °F - 73.9 °F 90% 30.03 in 10.0 mi NNW 9.2 mph - N/A   Mostly Cloudy
7:53 PM 79.0 °F - 73.0 °F 82% 30.02 in 10.0 mi East 6.9 mph - N/A   Mostly Cloudy
8:53 PM 79.0 °F - 72.0 °F 79% 30.03 in 10.0 mi ENE 8.1 mph - N/A   Mostly Cloudy
9:53 PM 79.0 °F - 72.0 °F 79% 30.05 in 10.0 mi East 9.2 mph - N/A   Mostly Cloudy
10:49 PM 75.2 °F - 71.6 °F 89% 30.06 in 2.0 mi NE 10.4 mph - 0.16 in Rain Rain
10:53 PM 73.0 °F - 70.0 °F 90% 30.06 in 2.0 mi NNE 8.1 mph - 0.28 in Rain Heavy Rain
11:03 PM 73.9 °F - 70.0 °F 87% 30.05 in 4.0 mi North 4.6 mph - 0.16 in Rain Rain
11:53 PM 77.0 °F - 73.0 °F 88% 30.05 in 10.0 mi East 6.9 mph - 0.17 in   Scattered Clouds